EW0638 Weather Reports


time (UTC)temp
C
wind
direction
speed
KPH
gust
KPH
rain 1hr
cm
rain 24hr
cm
rain mn
cm
humidity
%
barometer
mb
20260505164518 11 322 4.8 11.3 0.00 1.75 1.75 94 1010.5
20260505163025 11 9 6.4 20.9 0.03 1.75 1.75 94 1009.8
20260505161517 11 325 8.0 17.7 0.08 1.75 1.75 94 1009.6
20260505153058 10 35 4.8 12.9 0.38 1.73 1.73 94 1009.7
20260505151544 10 346 8.0 14.5 0.43 1.68 1.68 94 1010.9
20260505124548 14 333 1.6 14.5 0.00 1.19 1.19 92 1009.7
20260505123047 14 327 1.6 8.0 0.00 1.19 1.19 94 1009.6
20260505121530 14 344 0.0 6.4 0.00 1.19 1.19 94 1009.4
20260505120029 14 339 0.0 9.7 0.00 1.19 1.19 94 1009.2
20260505114508 14 321 1.6 8.0 0.00 1.19 1.19 94 1009.1
20260505113007 14 319 1.6 8.0 0.00 1.19 1.19 94 1008.7
20260505111550 14 327 0.0 0.0 0.00 1.19 1.19 94 1008.4
20260505101523 14 192 0.0 6.4 0.00 1.19 1.19 94 1007.6
20260505100015 14 150 0.0 12.9 0.00 1.19 1.19 95 1007.8
20260505094601 13 155 3.2 8.0 0.00 1.19 1.19 95 1007.5
20260505093057 13 195 0.0 4.8 0.03 1.37 1.19 95 1007.6
20260505091537 13 212 0.0 0.0 0.05 1.37 1.19 94 1007.9
20260505090036 13 355 0.0 0.0 0.30 1.37 1.19 93 1008.0
20260505084526 13 355 0.0 0.0 0.66 1.37 1.19 92 1008.1
20260505083016 13 355 0.0 0.0 0.81 1.42 1.17 92 1008.7
20260505081558 13 101 0.0 1.6 0.97 1.42 1.14 91 1008.8
20260505080056 14 315 4.8 12.9 0.91 1.19 0.91 89 1009.2
20260505074535 15 342 0.0 1.6 0.53 0.81 0.53 84 1008.4
20260505073031 16 33 0.0 8.0 0.36 0.66 0.36 80 1008.8
20260505071509 17 320 8.0 17.7 0.13 0.43 0.13 73 1009.1
20260505070008 18 344 19.3 32.2 0.00 0.30 0.00 68 1009.0
20260505064553 18 211 6.4 11.3 0.00 0.30 0.00 69 1007.1
20260505063043 18 192 8.0 17.7 0.00 0.30 0.00 68 1006.7
20260505061523 18 182 9.7 20.9 0.00 0.30 0.00 67 1006.1
20260505060019 18 213 9.7 19.3 0.00 0.30 0.00 66 1005.9
20260505054600 19 228 11.3 24.1 0.00 0.30 0.00 65 1005.6
20260505053059 19 226 12.9 24.1 0.00 0.30 0.00 65 1005.5
20260505051539 19 255 11.3 22.5 0.00 0.30 0.00 65 1005.6
20260505041504 20 190 11.3 20.9 0.00 0.30 0.00 62 1005.3
20260505040005 20 163 11.3 25.7 0.00 0.30 0.00 62 1005.4
20260505034609 20 198 14.5 24.1 0.00 0.30 0.00 61 1005.6
20260505033103 20 208 12.9 22.5 0.00 0.30 0.00 60 1005.5
20260505031557 20 217 11.3 27.4 0.00 0.30 0.00 60 1005.5
20260505030055 20 207 12.9 27.4 0.00 0.30 0.00 61 1005.4
20260505024550 20 186 11.3 22.5 0.00 0.30 0.00 61 1005.5
20260505023049 21 177 11.3 25.7 0.00 0.30 0.30 58 1005.5
20260505021534 21 212 16.1 37.0 0.00 0.30 0.30 55 1005.5
20260505020039 21 213 19.3 37.0 0.00 0.30 0.30 54 1004.7
20260505014516 22 193 29.0 56.3 0.00 0.30 0.30 51 1003.2
20260505013011 21 270 22.5 35.4 0.00 0.30 0.30 53 1004.2
20260505011554 21 161 17.7 38.6 0.00 0.30 0.30 52 1004.3
20260505010100 21 218 12.9 27.4 0.00 0.30 0.30 53 1005.0
20260505004534 21 228 11.3 25.7 0.00 0.30 0.30 52 1004.7
20260505003034 21 227 9.7 24.1 0.00 0.30 0.30 52 1004.7
20260505001517 22 238 11.3 24.1 0.00 0.30 0.30 50 1004.6
20260505000019 22 231 11.3 20.9 0.00 0.30 0.30 50 1004.4
20260504234611 22 241 12.9 30.6 0.00 0.30 0.30 49 1004.7
20260504233059 22 160 11.3 24.1 0.00 0.30 0.30 50 1004.8
20260504231539 23 215 11.3 20.9 0.00 0.30 0.30 50 1004.9
20260504230040 23 213 11.3 25.7 0.00 0.30 0.30 50 1004.7
20260504224520 23 200 14.5 24.1 0.00 0.30 0.30 50 1004.6
20260504223020 23 165 17.7 27.4 0.00 0.30 0.30 51 1004.6
20260504221559 23 192 14.5 30.6 0.00 0.30 0.30 52 1005.1
20260504220104 23 190 14.5 27.4 0.00 0.30 0.30 52 1005.2
20260504214541 23 213 12.9 32.2 0.00 0.30 0.30 53 1005.2
20260504213053 22 163 11.3 30.6 0.00 0.30 0.30 57 1005.3
20260504211519 21 187 11.3 24.1 0.00 0.30 0.30 61 1005.5
20260504210017 21 190 8.0 20.9 0.00 0.30 0.30 62 1006.1
20260504204617 21 190 9.7 22.5 0.00 0.30 0.30 64 1006.6
20260504203057 21 190 9.7 24.1 0.00 0.30 0.30 65 1006.8
20260504201557 21 159 8.0 19.3 0.00 0.30 0.30 67 1006.5
20260504200037 20 174 12.9 25.7 0.00 0.30 0.30 66 1006.9
20260504194536 20 212 11.3 25.7 0.00 0.30 0.30 68 1008.5
20260504193020 21 230 19.3 33.8 0.00 0.30 0.30 67 1008.2
20260504191520 21 217 11.3 20.9 0.00 0.30 0.30 64 1008.5
20260504190109 22 261 8.0 27.4 0.00 0.30 0.30 62 1007.8
20260504184559 22 173 16.1 32.2 0.00 0.30 0.30 61 1007.3
20260504183054 22 199 11.3 25.7 0.00 0.30 0.30 62 1007.7
20260504181538 22 208 9.7 25.7 0.00 0.30 0.30 64 1007.4
20260504180018 22 218 11.3 20.9 0.00 0.30 0.30 63 1007.6
20260504174519 22 185 4.8 14.5 0.00 0.30 0.30 64 1007.8
20260504173057 21 236 6.4 17.7 0.00 0.30 0.30 66 1007.9
20260504171555 21 196 12.9 24.1 0.00 0.30 0.30 66 1008.1